[[{"header":{"parameterUnit":"m.s-1","parameterCategory":1,"la1":30.2991,"la2":30.254,"lo1":-89.0895,"lo2":-89.0444,"dy":0.0017,"dx":0.0017,"nx":28,"ny":28,"refTime":"2025-05-22T09:00:00:Z","depth":0,"parameterNumber":2,"parameterNumberName":"U-component_of_WINDS"},"data":[0,0,0,0,0,0,0,0,0,0,0,0,0,0,0,0,0,0,0,0,0,0,0,0,0,0,0,0,0,0,0,0,0,0,0,0,0,0,0,0,0,0,0,0,0,0,0,0,0,0,0,0,0,0,0,0,0,0,-0.6474,-0.6475,0,-0.6511,-0.6512,-0.6512,-0.6506,-0.6505,-0.6504,-0.6504,-0.6541,-0.6542,-0.6544,0,0,0,0,0,0,0,0,0,0,0,0,0,-0.6396,-0.6397,-0.6474,-0.6475,-0.6475,-0.6511,-0.6512,-0.6512,-0.6506,-0.6505,-0.6504,-0.6503,-0.654,-0.6542,-0.6544,0,0,0,0,0,0,0,0,0,0,0,0,0,-0.6431,-0.6398,-0.6474,-0.6476,-0.6477,-0.6511,-0.6512,-0.6513,-0.6506,-0.6505,-0.6504,-0.6503,-0.654,-0.6542,-0.6544,-0.6579,0,0,-0.6552,-0.6553,0,0,0,0,0,0,0,0,-0.6429,-0.6434,-0.6475,-0.6476,-0.6477,-0.6503,-0.6498,-0.6535,-0.6506,-0.6495,-0.6504,-0.6502,-0.6529,-0.6532,-0.6541,-0.6581,-0.6582,-0.6552,-0.6553,-0.6554,-0.6555,0,0,0,0,0,0,0,-0.6427,-0.6432,-0.6489,-0.6476,-0.6477,-0.6475,-0.6479,-0.6505,-0.6517,-0.6496,-0.6495,-0.65,-0.6529,-0.6539,-0.6542,-0.6583,-0.6552,-0.6554,-0.6556,-0.6556,-0.6651,-0.6652,0,0,0,0,0,0,-0.6424,-0.643,-0.6488,-0.649,-0.645,-0.6477,-0.6481,-0.6495,-0.6517,-0.6519,-0.6501,-0.6499,-0.6535,-0.6539,-0.6543,-0.6585,-0.6554,-0.6557,-0.6558,-0.665,-0.6652,-0.6653,0,0,0,0,0,0,-0.6422,-0.6429,-0.6486,-0.646,-0.6467,-0.6479,-0.6495,-0.6497,-0.6507,-0.652,-0.6522,-0.6509,-0.6535,-0.654,-0.657,-0.6586,-0.6558,-0.656,-0.6649,-0.6651,-0.6652,-0.6668,0,0,0,0,0,0,-0.642,-0.6429,-0.6442,-0.6461,-0.6469,-0.6513,-0.6496,-0.6498,-0.6511,-0.651,-0.6528,-0.6531,-0.6534,-0.6566,-0.6572,-0.6589,-0.6562,-0.6648,-0.665,-0.6652,-0.6666,-0.667,-0.6673,0,0,0,0,0,-0.6417,-0.6445,-0.6443,-0.645,-0.6486,-0.6514,-0.6518,-0.6523,-0.6512,-0.6526,-0.6534,-0.653,-0.6583,-0.657,-0.6576,-0.6593,-0.6647,-0.6649,-0.6651,-0.6664,-0.6669,-0.6673,0,0,0,0,0,0,-0.6428,-0.6448,-0.6445,-0.648,-0.6495,-0.6513,-0.653,-0.6527,-0.6546,-0.6544,-0.6548,-0.6552,-0.6582,-0.6591,-0.6575,-0.6627,-0.6613,-0.6617,-0.6621,-0.6625,-0.6629,-0.6626,-0.6564,0,0,0,0,0,-0.6435,-0.6456,-0.6472,-0.6501,-0.6509,-0.6518,-0.653,-0.6532,-0.6548,-0.6554,-0.6565,-0.658,-0.66,-0.6613,-0.6632,-0.6667,-0.6671,-0.6682,-0.6686,-0.6688,-0.6692,-0.671,-0.6715,-0.6661,-0.6661,-0.6661,0,0,-0.6449,-0.6462,-0.6475,-0.6503,-0.6515,-0.6537,-0.6523,-0.6547,-0.6562,-0.6557,-0.6586,-0.6595,-0.6612,-0.6644,-0.6659,-0.6652,-0.6707,-0.6692,-0.6694,-0.6695,-0.6713,-0.6718,-0.6722,-0.6662,-0.6662,-0.6662,0,0,-0.6484,-0.6497,-0.6522,-0.6534,-0.6552,-0.6558,-0.6564,-0.6582,-0.6587,-0.6616,-0.6613,-0.6631,-0.6666,-0.6678,-0.6688,-0.6728,-0.6724,-0.6734,-0.6752,-0.677,-0.6774,-0.6778,-0.6791,-0.6796,-0.6737,-0.6737,-0.6737,0,-0.6499,-0.6531,-0.6535,-0.6559,-0.6571,-0.6567,-0.6593,-0.6604,-0.6628,-0.6636,-0.6628,-0.6671,-0.6682,-0.6717,-0.6726,-0.6735,-0.6742,-0.6732,-0.6773,-0.6777,-0.6781,-0.6793,-0.6799,-0.6738,-0.6738,-0.6738,-0.6738,0,-0.6548,-0.6571,-0.6589,-0.6612,-0.6626,-0.665,-0.6657,-0.6671,-0.6671,-0.6677,-0.6707,-0.672,-0.6741,-0.675,-0.675,-0.6784,-0.6779,-0.6772,-0.6758,-0.6787,-0.6799,-0.6804,-0.674,-0.6739,-0.6739,-0.6739,0,0,-0.6593,-0.6617,-0.6623,-0.6633,-0.6653,-0.667,-0.6693,-0.6714,-0.6726,-0.6742,-0.6761,-0.679,-0.6784,-0.6796,-0.6797,-0.6813,-0.6842,-0.6804,-0.6804,-0.681,-0.6879,-0.6884,-0.689,-0.684,-0.6841,-0.6841,-0.6878,0,-0.663,-0.6672,-0.6676,-0.6714,-0.6734,-0.673,-0.6751,-0.6764,-0.6771,-0.6788,-0.6795,-0.6815,-0.6805,-0.6813,-0.6828,-0.6835,-0.6856,-0.6833,-0.6857,-0.6858,-0.6853,-0.6896,-0.6902,-0.6936,-0.6883,-0.6883,-0.6884,0,-0.668,-0.6697,-0.6737,-0.6752,-0.6761,-0.6779,-0.6798,-0.6816,-0.6831,-0.6834,-0.6847,-0.6846,-0.687,-0.6855,-0.6887,-0.6871,-0.6881,-0.6886,-0.6887,-0.689,-0.6873,-0.69,-0.6947,-0.6951,-0.6892,-0.6891,-0.689,0,-0.6708,-0.6741,-0.6769,-0.6777,-0.6797,-0.6809,-0.6818,-0.6832,-0.6844,-0.686,-0.6868,-0.6887,-0.6897,-0.6912,-0.6916,-0.6905,-0.6947,-0.6933,-0.695,-0.695,-0.696,-0.6959,-0.7009,-0.6966,-0.6966,-0.6966,-0.6966,0,-0.6749,-0.6773,-0.6782,-0.6799,-0.6825,-0.6829,-0.6855,-0.6863,-0.6875,-0.6893,-0.6891,-0.6908,-0.6912,-0.6929,-0.6933,-0.6958,-0.6963,-0.6966,-0.6966,-0.6966,-0.6966,-0.6973,-0.697,-0.6968,-0.6967,-0.6967,-0.6967,0,-0.6785,-0.6792,-0.6822,-0.6837,-0.6841,-0.686,-0.6873,-0.6889,-0.6895,-0.6918,-0.6923,-0.6932,-0.6952,-0.6957,-0.6982,-0.6984,-0.7014,-0.7012,-0.7009,-0.7009,-0.7026,-0.7024,-0.7081,-0.7089,-0.7042,-0.7042,-0.7043,0,-0.6811,-0.683,-0.6847,-0.6859,-0.6868,-0.6887,-0.6899,-0.6903,-0.6916,-0.6934,-0.6947,-0.6967,-0.6983,-0.7016,-0.7024,-0.7042,-0.7041,-0.706,-0.7043,-0.7042,-0.704,-0.7039,-0.7041,-0.7063,-0.7063,-0.7064,-0.7064,0,-0.6856,-0.6858,-0.6876,-0.6895,-0.691,-0.6925,-0.6939,-0.6949,-0.6954,-0.6968,-0.6989,-0.7002,-0.7026,-0.7045,-0.7064,-0.7072,-0.7068,-0.7069,-0.7074,-0.7074,-0.7071,-0.7072,-0.7017,-0.7068,-0.7067,-0.7067,-0.7067,-0.7067,-0.6888,-0.6904,-0.6918,-0.6938,-0.6949,-0.6962,-0.6978,-0.6985,-0.7003,-0.7023,-0.7024,-0.7046,-0.7059,-0.7083,-0.7092,-0.7109,-0.7103,-0.7111,-0.7113,-0.7114,-0.7115,-0.7068,-0.7112,-0.7112,-0.7112,-0.7112,-0.7112,0,-0.6933,-0.6942,-0.696,-0.698,-0.6995,-0.6991,-0.7006,-0.7019,-0.7038,-0.7051,-0.7067,-0.709,-0.7109,-0.7118,-0.7136,-0.7148,-0.7147,-0.7152,-0.7152,-0.7153,-0.712,-0.7113,-0.7153,-0.7153,-0.7153,-0.7153,-0.7153,-0.7153,-0.6958,-0.6985,-0.6988,-0.702,-0.7028,-0.705,-0.7059,-0.7071,-0.7081,-0.7107,-0.7122,-0.7128,-0.7139,-0.7158,-0.7175,-0.7177,-0.7183,-0.719,-0.7191,-0.716,-0.7156,-0.7152,-0.7146,-0.7191,-0.7191,-0.7223,-0.7224,-0.7224]},{"header":{"parameterUnit":"m.s-1","parameterCategory":1,"la1":30.2991,"la2":30.254,"lo1":-89.0895,"lo2":-89.0444,"dy":0.0017,"dx":0.0017,"nx":28,"ny":28,"refTime":"2025-05-22T09:00:00:Z","depth":0,"parameterNumber":3,"parameterNumberName":"V-component_of_WINDS"},"data":[0,0,0,0,0,0,0,0,0,0,0,0,0,0,0,0,0,0,0,0,0,0,0,0,0,0,0,0,0,0,0,0,0,0,0,0,0,0,0,0,0,0,0,0,0,0,0,0,0,0,0,0,0,0,0,0,0,0,-2.239,-2.239,0,-2.2418,-2.2419,-2.2419,-2.2386,-2.2385,-2.2383,-2.2382,-2.2408,-2.241,-2.2412,0,0,0,0,0,0,0,0,0,0,0,0,0,-2.2304,-2.2305,-2.239,-2.239,-2.2391,-2.2418,-2.2419,-2.2419,-2.2386,-2.2385,-2.2383,-2.2382,-2.2408,-2.241,-2.2412,0,0,0,0,0,0,0,0,0,0,0,0,0,-2.2337,-2.2306,-2.239,-2.2377,-2.2377,-2.2418,-2.2419,-2.2419,-2.2386,-2.2385,-2.2383,-2.2381,-2.2407,-2.241,-2.2413,-2.2467,0,0,-2.2421,-2.2422,0,0,0,0,0,0,0,0,-2.2336,-2.2341,-2.2379,-2.2378,-2.2378,-2.2397,-2.2398,-2.2435,-2.2387,-2.2383,-2.2382,-2.238,-2.2406,-2.2409,-2.2418,-2.2468,-2.2469,-2.2421,-2.2423,-2.2424,-2.2425,0,0,0,0,0,0,0,-2.2333,-2.2339,-2.2401,-2.2379,-2.2379,-2.237,-2.2372,-2.2405,-2.2404,-2.2383,-2.238,-2.2385,-2.2405,-2.2415,-2.2418,-2.247,-2.2421,-2.2424,-2.2425,-2.2427,-2.2565,-2.2567,0,0,0,0,0,0,-2.2333,-2.2337,-2.24,-2.2402,-2.2352,-2.2373,-2.2376,-2.2392,-2.2404,-2.2404,-2.2386,-2.2383,-2.2412,-2.2415,-2.2419,-2.2483,-2.2424,-2.2427,-2.2428,-2.2563,-2.2566,-2.2568,0,0,0,0,0,0,-2.2331,-2.2339,-2.2399,-2.2369,-2.2376,-2.2376,-2.2395,-2.2394,-2.2404,-2.2406,-2.2406,-2.2397,-2.241,-2.2415,-2.2455,-2.2483,-2.2428,-2.2431,-2.2561,-2.2564,-2.2567,-2.2611,0,0,0,0,0,0,-2.2329,-2.2338,-2.2359,-2.237,-2.2378,-2.2436,-2.2397,-2.2396,-2.2409,-2.2405,-2.2416,-2.2416,-2.2409,-2.2451,-2.2458,-2.2486,-2.2433,-2.2558,-2.2562,-2.2566,-2.2607,-2.2616,-2.2623,0,0,0,0,0,-2.2326,-2.237,-2.2361,-2.2368,-2.2405,-2.2437,-2.2442,-2.2434,-2.2412,-2.2433,-2.2434,-2.2416,-2.248,-2.2456,-2.2463,-2.2492,-2.2556,-2.2561,-2.2565,-2.2604,-2.2614,-2.2622,0,0,0,0,0,0,-2.2362,-2.2371,-2.2361,-2.241,-2.2424,-2.2432,-2.2458,-2.2445,-2.2463,-2.2459,-2.2447,-2.245,-2.2492,-2.2496,-2.247,-2.2545,-2.2514,-2.252,-2.2541,-2.2551,-2.2558,-2.2556,-2.2435,0,0,0,0,0,-2.2376,-2.2403,-2.2409,-2.2452,-2.2459,-2.2458,-2.2472,-2.2464,-2.2477,-2.2482,-2.2486,-2.2498,-2.2521,-2.2536,-2.2557,-2.2608,-2.261,-2.2632,-2.264,-2.2646,-2.2651,-2.2678,-2.2688,-2.2583,-2.2583,-2.2583,0,0,-2.2404,-2.2413,-2.243,-2.246,-2.2469,-2.2496,-2.2462,-2.2492,-2.2512,-2.2486,-2.2524,-2.2528,-2.2541,-2.2587,-2.2607,-2.2591,-2.2681,-2.2652,-2.2657,-2.2658,-2.2683,-2.2693,-2.2702,-2.2586,-2.2585,-2.2585,0,0,-2.247,-2.248,-2.2517,-2.2527,-2.2542,-2.2541,-2.255,-2.256,-2.2562,-2.2601,-2.2582,-2.2604,-2.2644,-2.2654,-2.2664,-2.2734,-2.2718,-2.2742,-2.2781,-2.2807,-2.2815,-2.2823,-2.2847,-2.2856,-2.2747,-2.2747,-2.2747,0,-2.2503,-2.2545,-2.2537,-2.2569,-2.2582,-2.2561,-2.2598,-2.2608,-2.2628,-2.2637,-2.262,-2.2669,-2.2676,-2.2724,-2.2741,-2.275,-2.2759,-2.274,-2.2815,-2.2822,-2.2829,-2.2852,-2.2861,-2.275,-2.2749,-2.2749,-2.2749,0,-2.2584,-2.2613,-2.2641,-2.2663,-2.2679,-2.2713,-2.271,-2.2727,-2.2719,-2.2719,-2.2758,-2.2766,-2.2788,-2.2799,-2.2791,-2.2846,-2.2836,-2.2817,-2.2785,-2.2842,-2.2863,-2.2872,-2.2754,-2.2753,-2.2752,-2.2751,0,0,-2.2673,-2.2691,-2.2701,-2.2711,-2.2726,-2.2748,-2.278,-2.2803,-2.2818,-2.2833,-2.286,-2.2894,-2.2877,-2.2889,-2.2881,-2.2905,-2.2959,-2.2883,-2.2883,-2.2896,-2.3019,-2.3033,-2.3043,-2.2949,-2.2951,-2.2952,-2.3018,0,-2.2738,-2.2796,-2.2791,-2.2845,-2.2872,-2.2853,-2.2881,-2.2893,-2.2895,-2.2916,-2.2917,-2.2941,-2.2917,-2.2924,-2.2947,-2.2948,-2.2984,-2.2943,-2.2972,-2.2974,-2.2969,-2.3055,-2.3069,-2.3131,-2.3026,-2.3028,-2.3029,0,-2.2822,-2.2842,-2.29,-2.2911,-2.2922,-2.2948,-2.2968,-2.299,-2.3003,-2.3002,-2.3016,-2.3004,-2.3036,-2.3005,-2.3049,-2.3021,-2.3033,-2.3036,-2.3038,-2.3039,-2.3004,-2.3057,-2.315,-2.3159,-2.3042,-2.3041,-2.304,0,-2.288,-2.2921,-2.296,-2.2969,-2.2984,-2.3003,-2.301,-2.3021,-2.3035,-2.3053,-2.3062,-2.3083,-2.3094,-2.311,-2.3104,-2.3082,-2.3149,-2.3117,-2.3148,-2.3148,-2.3162,-2.3161,-2.3257,-2.3171,-2.3171,-2.3171,-2.3171,0,-2.2953,-2.2989,-2.2987,-2.3011,-2.305,-2.3043,-2.3082,-2.3086,-2.3097,-2.3121,-2.3106,-2.3129,-2.312,-2.3142,-2.3138,-2.3174,-2.318,-2.3179,-2.3178,-2.318,-2.318,-2.3187,-2.3182,-2.3174,-2.3173,-2.3173,-2.3172,0,-2.3024,-2.3024,-2.3066,-2.3077,-2.3081,-2.3109,-2.3118,-2.314,-2.3141,-2.3172,-2.3178,-2.3179,-2.3204,-2.3201,-2.3228,-2.3225,-2.3271,-2.3264,-2.3266,-2.3265,-2.3296,-2.3292,-2.3398,-2.3412,-2.3318,-2.3319,-2.332,0,-2.307,-2.3098,-2.3112,-2.3128,-2.3136,-2.3162,-2.3176,-2.3171,-2.3186,-2.3204,-2.3224,-2.3248,-2.3267,-2.3308,-2.331,-2.3331,-2.3324,-2.336,-2.3327,-2.3329,-2.3324,-2.3322,-2.3324,-2.3366,-2.3367,-2.3368,-2.3369,0,-2.3152,-2.3151,-2.3174,-2.3196,-2.3215,-2.3232,-2.3247,-2.3261,-2.3256,-2.3275,-2.3301,-2.3316,-2.3345,-2.3369,-2.3389,-2.3394,-2.3381,-2.3379,-2.3387,-2.339,-2.339,-2.3389,-2.3283,-2.3377,-2.3376,-2.3375,-2.3375,-2.3374,-2.3211,-2.3235,-2.3249,-2.3274,-2.3286,-2.3301,-2.3323,-2.3327,-2.3349,-2.3373,-2.3368,-2.3397,-2.3409,-2.3435,-2.3443,-2.3465,-2.3452,-2.3464,-2.3467,-2.3469,-2.3473,-2.3387,-2.3469,-2.3469,-2.3468,-2.3468,-2.3468,0,-2.3292,-2.33,-2.3324,-2.3347,-2.3367,-2.3354,-2.3371,-2.3388,-2.3414,-2.3428,-2.3447,-2.3477,-2.35,-2.3505,-2.3526,-2.3543,-2.3537,-2.3549,-2.3547,-2.3549,-2.3484,-2.3474,-2.3553,-2.3553,-2.3553,-2.3553,-2.3553,-2.3553,-2.3336,-2.3375,-2.3376,-2.342,-2.3427,-2.3457,-2.3468,-2.3481,-2.3492,-2.3526,-2.3546,-2.3549,-2.3559,-2.3581,-2.3602,-2.3602,-2.3611,-2.3625,-2.3623,-2.3562,-2.3553,-2.3545,-2.3536,-2.3627,-2.3627,-2.3685,-2.3686,-2.3686]}]]